Погода в Славгороде

Погода в Славгороде : погода сейчас, прогноз погоды и архив. Всё, что Вы хотите узнать о погоде в Славгороде!

Хотите узнать прогноз погоды в Славгороде? Тогда Вам сюда: Погода в Славгороде

Поиск расширенной информации на нашем сайте:

Полезная информация: Самая подробная информация статусы про сук у нас на сайте.

Другие новости

Новости СМИ2

Главная страница сайта

Новости сайта

03.07.2017

Напоминаем, что на нашем специализированном сайте Метеоцентр.Азия вы можете получить высокодетализированные автоматические прогнозы погоды по пунктам России, СНГ и мира в авиационном формате (включающие направление и скорость ветра, видимость, явления погоды, количество и форму облачности, нижнюю и верхнюю границу облачности).

Рекомендуем: гаджет погоды

Погода в Славгороде - сегодня

Время (UTC), дата Ветер
(°,м/с) 
Видим.   Явления Облачность Т
(°С)
Тd
(°С)
f(%) Тe
(°С)
Pmin
(гПа)
dP
(гПа)
Po
(мм)
O2
(г/м3)
Тmin Tmax R s Состояние
почвы
12 19.07.17 320 (СЗ) 10 км    8/8 600 м средняя 
[Cu Sc|Ac trans]
+20.9 +10 50 +22  1018.5  -0.8  749  279           
15 19.07.17 010 (С) 10 км    9/8 600 м средняя 
[Sc|Ac trans]
+20.2 +10.9 55 +23  1017.8  -0.7  749  279           
18 19.07.17 тихо ()   10 км    8/4 600 м средняя 
[Sc|Ac trans]
+19.2 +12 63 +23  1017.7  -0.2  748  279    +22.1       
21 19.07.17 140 (ЮВ) 10 км    9/9 630 м 
[Sc]
+15.4 +12.8 84 +22  1017.6  -0.4  748  283           
00 20.07.17 тихо ()   10 км    9/9 570 м 
[Sc]
+15.1 +11.8 81 +19  1017.2  -0.5  748  283           
06 20.07.17 260 (З) 10 км    8/4 600 м средняя, верхняя 
[Sc|Ac trans|Ci fib]
+18.3 +13.3 73 +26  1015.8  747  279  +12.4         
09 20.07.17 060 (СВ) 10 км    9/0 верхняя 
[Ci sp]
+22.7 +11.9 50 +27  1014.5  -1.1  746  275           
12 20.07.17 180 (Ю) 10 км    8/5 1000 м верхняя 
[Cu med, cong|Ci fib]
+24.4 +12.8 48 +30  1012.8  -1.5  745  273           
15 20.07.17 250 (З) 10 км    8/8 1000 м 
[Cu med, cong]
+25.2 +10.5 40 +27  1011.5  -1.2  744  273           
18 20.07.17 330 (СЗ) 10 км    1/1 600 м 
[Sc]
+20.5 +12.7 61 +26  1012.2  0.3  744  277    +25.5       
21 20.07.17 130 (ЮВ) 10 км    1/1 600 м 
[Sc]
+16.3 +11.8 75 +22  1012.9  0.4  745  281           
00 21.07.17 190 (Ю) 10 км    ясно 
+14.2 +12.9 92 +20  1013  745  283           
03 21.07.17 тихо ()   0500 м  туман  ясно 
+13.2 +13.2 100 +19  1013.1  745  284           
06 21.07.17 240 (ЮЗ) 10 км  {туман}  ясно 
+20.4 +16.3 77 +32  1012.7  0.1  745  276  +12.5         
09 21.07.17 300 (СЗ) 10 км    8/5 1000 м средняя 
[Cu hum|Ac und]
+24.2 +14.7 55 +33  1012.8  0.4  745  273           
12 21.07.17 340 (С) 10 км    8/8 1000 м 
[Cu med, cong]
+25.2 +14.5 51 +33  1012.6  -0.1  745  272           
15 21.07.17 320 (СЗ) 10 км    9/9 600 м 
[Sc]
+25.1 +15.3 55 +34  1012.3  -0.3  745  272           
18 21.07.17 020 (С) 10 км    9/9 600 м 
[Sc]
+21.5 +15.3 68 +31  1013.3  0.7  745  275    +27.2       
00 22.07.17 060 (СВ) 10 км  слаб. ливневой дождь  10/10 420 м кучево-дожд. 
[Cb cap]
+17.8 +13.5 76 +24  1012.7  -1.4  745  279      0.0     
03 22.07.17 060 (СВ) 4000 м  ливневой дождь{гроза}  10/10 420 м кучево-дожд. 
[Cb cap]
+15.1 +14.4 96 +23  1012.2  -0.6  744  281      10     
06 22.07.17 020 (С) 4000 м  слаб. ливневой дождь{гроза}  10/10 420 м кучево-дожд. 
[Cb cap]
+15 +14.1 94 +22  1013.2  0.9  745  282  +15    14     
12 22.07.17 050 (СВ) 10 км  {ливн. осадки}  8/6 600 м средняя 
[Sc|Ac und]
+20.7 +15.1 70 +30  1014.5  746  276           
15 22.07.17 040 (СВ) 10 км    3/3 1000 м 
[Sc]
+21.9 +10.4 48 +24  1014.7  0.3  746  277         
18 22.07.17 тихо ()   10 км    3/0 средняя 
[Ac trans]
+18.8 +12.9 69 +24  1015.6  0.7  747  279    +22     
21 22.07.17 тихо ()   10 км    ясно 
+14 +11.4 84 +17  1016.5  0.6  747  284           
Время (UTC), дата Ветер
(°,м/с) 
Видим.   Явления Облачность Т
(°С)
Тd
(°С)
f(%) Тe
(°С)
Pmin
(гПа)
dP
(гПа)
Po
(мм)
O2
(г/м3)
Тmin Tmax R s Состояние
почвы

Для получения пояснительной информации подведите курсор к названию столбца.

ПОГОДА в Славгороде - архив

Всё, что Вы хотите узнать о погоде в Славгороде - удобно и подробно!

Выберите нужную дату (начиная с 1 января 2015* года) и нажмите кнопку "Найти".
Будут отображены архивные сводки погоды по пункту Славгород, начиная с указанной даты.


Отображать данные в формате CSV (для использования в таблицах Excel)


Внимание! Наш архив погоды предназначен исключительно для личного некоммерческого использования в познавательных целях. Если Вам необходимы официальные справки о состоянии погоды (для производственных, юридических, коммерческих и т.п. целей), обращайтесь в органы Росгидромета.

*Примечание: данная дата относится к архиву по метеостанциям СССР (Россия, СНГ, Балтия).
Архив по метеостанциям Зарубежной Европы и Азии (кроме Китая) хранится 10 дней, по другим регионам земного шара (Китай, Африка, Америка, Австралия, Океания) - 1 день.

Славгород - район местоположения метеостанции


Название, широта, долгота, высота метеостанции:
Славгород 53.4°ш. 31°д. 170 м над ур. моря [Беларусь]

Дополнительная информация

В oтличие oт бoльшинства пoгoдных сайтoв мы публикуем пoдрoбную метеoинфoрмацию в детальнoм прoфессиoнальнoм фoрмате.

Характеристики температуры и влажнoсти вoздуха измеряются на высoте 2 м в тени вдали oт зданий и деревьев.
Скoрoсть ветра измеряется на высoте 10 м (на урoвне рoста челoвека скoрoсть ветра ниже в 1.5-2 раза). Если метеoстанция нахoдится в гoрoде или в лесу, тo скoрoсть ветра занижена на 2-4 м/с пo сравнению с oткрытым местoм. Скoрoсть ветра над акватoриями крупных рек и oзёр, а также на вершинах хoлмoв на 2-5 м/с выше, чем в oбычных услoвиях.
Атмoсфернoе давление в разных тoчках местнoсти мoжет значительнo oтличаться oт давления на метеoстанции, в зависимoсти oт услoвий рельефа (при пoдъёме на 10 м давление пoнижается примернo на 1 мм рт.ст.).